This is the latest recevied weather packets stored in our database for station/object WC4PEM-7. If no packets are shown the sender has not sent any weather packets the latest 10 day(s).
| Time | Temp. | Humidity | Pressure | Rain* | Wind** | Luminosity | Snow |
|---|---|---|---|---|---|---|---|
| 1777729127 | 25° C | 83% | 1011.1 hPa | 0 mm | - | - | - |
| 1777728827 | 25° C | 83% | 1011 hPa | 0 mm | - | - | - |
| 1777728527 | 25° C | 83% | 1011 hPa | 0 mm | - | - | - |
| 1777728227 | 24.44° C | 82% | 1010.9 hPa | 0 mm | - | - | - |
| 1777728051 | 24.44° C | 83% | 1010.5 hPa | 0 mm | - | - | - |
| 1777727927 | 24.44° C | 83% | 1010.8 hPa | 0 mm | - | - | - |
| 1777727627 | 24.44° C | 83% | 1010.5 hPa | 0 mm | - | - | - |
| 1777727327 | 23.89° C | 84% | 1010.5 hPa | 0 mm | - | - | - |
| 1777727117 | 23.33° C | 86% | 1010.5 hPa | 0 mm | - | - | - |
| 1777727027 | 23.89° C | 84% | 1010.5 hPa | 0 mm | - | - | - |
| 1777726727 | 23.33° C | 86% | 1010.5 hPa | 0 mm | - | - | - |
| 1777726427 | 23.33° C | 86% | 1010.6 hPa | 0 mm | - | - | - |
| 1777726127 | 23.33° C | 86% | 1010.5 hPa | 0 mm | - | - | - |
| 1777725827 | 22.78° C | 87% | 1010.6 hPa | 0 mm | - | - | - |
| 1777725527 | 22.78° C | 89% | 1010.5 hPa | 0 mm | - | - | - |
| 1777725227 | 22.22° C | 90% | 1010.5 hPa | 0 mm | - | - | - |
| 1777724927 | 22.22° C | 91% | 1010.5 hPa | 0 mm | - | - | - |
| 1777724627 | 21.67° C | 91% | 1010.3 hPa | 0 mm | - | - | - |
| 1777724327 | 21.67° C | 92% | 1010.2 hPa | 0 mm | - | - | - |
| 1777724027 | 21.67° C | 92% | 1010.2 hPa | 0 mm | - | - | - |
| 1777723727 | 21.11° C | 93% | 1010.2 hPa | 0 mm | - | - | - |
| 1777723565 | 21.11° C | 94% | 1010.2 hPa | 0 mm | - | - | - |
| 1777723427 | 21.11° C | 94% | 1010.2 hPa | 0 mm | - | - | - |
| 1777723127 | 21.11° C | 94% | 1010.3 hPa | 0 mm | - | - | - |
| 1777722827 | 21.11° C | 95% | 1010.4 hPa | 0 mm | - | - | - |
* Rain latest hour (hover to see other rain measurements)
** Current wind speed in m/s (hover to see current wind gust speed)